{"data":{"norad_id":55764,"epoch":"2026-09-20T22:06:48.703392Z","epoch_age_seconds":66632,"freshness":"FRESH","line1":"1 55764U 23028Z   26263.92139703 -.00000191  00000+0 -81913-5 0  9994","line2":"2 55764  69.9982  92.3427 0002817 271.8340  88.2496 14.98329106195771","mean_motion":14.98329106,"eccentricity":0.0002817,"inclination_deg":69.9982,"raan_deg":92.3427,"arg_perigee_deg":271.834,"mean_anomaly_deg":88.2496,"bstar":-8.1913e-6,"rev_number":19577,"period_min":96.107056469342,"perigee_km":570.10078545087,"apogee_km":574.01652568322,"semimajor_km":6950.195655567,"source":"CELESTRAK","updated_at":"2026-09-21T09:00:33.315876Z"}}